Air Resources Laboratory banner image
Air Resources Laboratory web site National Oceanic and Atmospheric Administration (NOAA)

mi roundup


Office: DTX

ASUS43 KDTX 160901
RWRMI
MICHIGAN HOURLY REGIONAL WEATHER ROUNDUP
NATIONAL WEATHER SERVICE DETROIT/PONTIAC MI
500 AM EDT TUE AUG 16 2022

NOTE: "FAIR" INDICATES FEW OR NO CLOUDS BELOW 12,000 FEET WITH NO
SIGNIFICANT WEATHER AND/OR OBSTRUCTION TO VISIBILITY.

MIZ047>049-052>055-059>063-066>070-074>076-081>083-161000-
SOUTHEAST LOWER MICHIGAN

CITY           SKY/WX    TMP DP  RH WIND       PRES   REMARKS
ADRIAN         CLEAR     59  54  83 NE7       30.05S
ALMA           CLEAR     54  51  89 CALM      30.11S
ANN ARBOR      PTCLDY    61  53  75 NE5       30.05S
BAD AXE        CLEAR     52  52 100 CALM      30.09S
CARO           CLEAR     57  55  92 CALM      30.09S
DETROIT CITY   CLEAR     65  57  75 N7        30.05R
DETROIT        MOCLDY    64  56  75 N6        30.05R
FLINT          CLEAR     57  54  89 N3        30.08S
GROSSE ILE     MOCLDY    65  63  92 N8        30.03S
HILLSDALE      CLEAR     59  54  84 NE3       30.06S
HOWELL         PTCLDY    58  54  86 CALM      30.08S

CITY           SKY/WX    TMP DP  RH WIND       PRES   REMARKS
JACKSON        CLEAR     59  53  80 N3        30.07S
LAMBERTVILLE   CLEAR     62  57  83 N3        30.03S
LANSING        CLEAR     59  56  89 CALM      30.09S
LAPEER         CLEAR     57  53  88 CALM      30.08S
MASON          CLEAR     57  54  91 CALM      30.08S
MONROE         CLEAR     60  55  83 N6        30.03S
MT. CLEMENS    CLEAR     62  61  99 NW5       30.02S
PONTIAC        PTCLDY    62  57  83 NE3       30.07R
PORT HOPE        N/A     70  65  84 NE13      30.07S
PORT HURON     PTCLDY    61  55  82 CALM      30.05S
TRI CITIES     CLEAR     57  51  80 N7        30.10S
MIDLAND        NOT AVBL
TROY           PTCLDY    65  58  78 CALM      30.07S
SAGINAW HB     CLEAR     57  54  91 CALM      30.09S
$$
MIZ043>046-050>051-056>058-064>065-071>073-077>080-161000-
SOUTHWEST LOWER MICHIGAN

CITY           SKY/WX    TMP DP  RH WIND       PRES   REMARKS
BATTLE CREEK   CLEAR     58  54  86 NE7       30.08S
BENTON HARBOR    N/A    N/A N/A N/A MISG      30.07R
BIG RAPIDS     CLEAR     55  54  97 CALM      30.13S
COLDWATER      CLEAR     58  55  90 NE3       30.07S
FREMONT        FAIR      60  54  79 NE7       30.11S
HOLLAND        CLEAR     60  53  77 CALM      30.09S
GRAND RAPIDS   CLEAR     57  54  89 NE6       30.10S
IONIA          FAIR      57  56  94 NE7       30.09F
KALAMAZOO      CLEAR     60  54  80 CALM      30.08S
LUDINGTON      CLEAR     55  55  99 CALM      30.12S FOG
MARSHALL       CLEAR     59  55  85 CALM      30.07S
MOUNT PLEASANT CLEAR     50  50 100 CALM      30.11S
MUSKEGON       CLEAR     60  53  77 NE5       30.10S
SOUTH HAVEN    CLEAR     60  56  84 CALM      30.07S
$$
MIZ016>042-161000-
NORTHERN LOWER MICHIGAN

CITY           SKY/WX    TMP DP  RH WIND       PRES   REMARKS
ALPENA         CLEAR     56  55  97 W3        30.14R
BEAVER ISLAND    N/A     56  56 100 CALM      30.16S FOG
BELLAIRE       CLEAR     50  50  97 CALM      30.15S
CADILLAC       CLEAR     50  49  97 CALM      30.14R
CHARLEVOIX     CLEAR     55  54  96 CALM      30.15S
FRANKFORT      CLEAR     56  54  91 CALM      30.14R
GAYLORD        CLEAR     51  45  79 CALM      30.16S
HARBOR SPRINGS CLEAR     57  56  95 CALM      30.16R
HOUGHTON LAKE  CLEAR     51  47  86 CALM      30.14S
MANISTEE       CLEAR     55  55 100 SE5       30.13R
OSCODA         CLEAR     56  56  99 NW5       30.11S
PELLSTON       CLEAR     51  51 100 CALM      30.16S
ROGERS CITY    CLEAR     51  49  94 CALM      30.15S
TRAVERSE CITY  CLEAR     54  51  90 CALM      30.13R
$$
MIZ007>008-015-161000-
EASTERN UPPER MICHIGAN

CITY           SKY/WX    TMP DP  RH WIND       PRES   REMARKS
KINROSS        CLEAR     61  58  90 NE7       30.18R
MACKINAC ISLAN CLEAR     60  60 100 N8        30.16R
NEWBERRY       CLEAR     55  54  95 N3        30.18R
S. S. MARIE    CLEAR     62  54  74 CALM      30.17R
$$
MIZ004>006-011>014-085-161000-
CENTRAL UPPER MICHIGAN

CITY           SKY/WX    TMP DP  RH WIND       PRES   REMARKS
MANISTIQUE     CLEAR     54  53  96 CALM      30.16S
ESCANABA       CLEAR     53  53 100 NW3       30.17S
MENOMINEE      CLEAR     55  54  96 N6        30.17R
SAWYER-GWINN   CLEAR     48  47  96 CALM      30.19S
MUNISING         N/A     51  50  96 S6        30.17S
$$
MIZ001>003-009>011-084-161000-
WESTERN UPPER MICHIGAN

CITY           SKY/WX    TMP DP  RH WIND       PRES   REMARKS
IRON MOUNTAIN  CLEAR     52  51  97 NW3       30.18S
HOUGHTON       CLEAR     51  49  92 E3        30.18F
COPPER HARBOR    N/A     55  52  89 SW5       30.18S
IRONWOOD       PTCLDY    62  56  80 S9        30.17F
$$

ABBREVIATIONS USED IN REMARKS
   TC - TEMPERATURE IN CELSIUS
  WCI - WIND CHILL INDEX
   HX - HEAT INDEX
  VSB - VISIBILITY



ASUS43 KDTX 160910
RWRMI
MICHIGAN HOURLY REGIONAL WEATHER ROUNDUP
NATIONAL WEATHER SERVICE DETROIT/PONTIAC MI
500 AM EDT TUE AUG 16 2022

NOTE: "FAIR" INDICATES FEW OR NO CLOUDS BELOW 12,000 FEET WITH NO
SIGNIFICANT WEATHER AND/OR OBSTRUCTION TO VISIBILITY.

MIZ047>049-052>055-059>063-066>070-074>076-081>083-161000-
SOUTHEAST LOWER MICHIGAN

CITY           SKY/WX    TMP DP  RH WIND       PRES   REMARKS
ADRIAN         CLEAR     59  54  83 NE7       30.05S
ALMA           CLEAR     54  51  89 CALM      30.11S
ANN ARBOR      PTCLDY    61  53  75 NE5       30.05S
BAD AXE        CLEAR     52  52 100 CALM      30.09S
CARO           CLEAR     57  55  92 CALM      30.09S
DETROIT CITY   CLEAR     65  57  75 N7        30.05R
DETROIT        MOCLDY    64  56  75 N6        30.05R
FLINT          CLEAR     57  54  89 N3        30.08S
GROSSE ILE     MOCLDY    65  63  92 N8        30.03S
HILLSDALE      CLEAR     59  54  84 NE3       30.06S
HOWELL         PTCLDY    58  54  86 CALM      30.08S

CITY           SKY/WX    TMP DP  RH WIND       PRES   REMARKS
JACKSON        CLEAR     59  53  80 N3        30.07S
LAMBERTVILLE   CLEAR     62  57  83 N3        30.03S
LANSING        CLEAR     59  56  89 CALM      30.09S
LAPEER         CLEAR     57  53  88 CALM      30.08S
MASON          CLEAR     57  54  91 CALM      30.08S
MONROE         CLEAR     60  55  83 N6        30.03S
MT. CLEMENS    CLEAR     62  61  99 NW5       30.02S
PONTIAC        PTCLDY    62  57  83 NE3       30.07R
PORT HOPE        N/A     70  65  84 NE13      30.07S
PORT HURON     PTCLDY    61  55  82 CALM      30.05S
TRI CITIES     CLEAR     57  51  80 N7        30.10S
MIDLAND        CLEAR     50  50 100 N5        30.10S
TROY           PTCLDY    65  58  78 CALM      30.07S
SAGINAW HB     CLEAR     57  54  91 CALM      30.09S
$$
MIZ043>046-050>051-056>058-064>065-071>073-077>080-161000-
SOUTHWEST LOWER MICHIGAN

CITY           SKY/WX    TMP DP  RH WIND       PRES   REMARKS
BATTLE CREEK   CLEAR     58  54  86 NE7       30.08S
BENTON HARBOR    N/A    N/A N/A N/A MISG      30.07R
BIG RAPIDS     CLEAR     55  54  97 CALM      30.13S
COLDWATER      CLEAR     58  55  90 NE3       30.07S
FREMONT        FAIR      60  54  79 NE7       30.11S
HOLLAND        CLEAR     60  53  77 CALM      30.09S
GRAND RAPIDS   CLEAR     57  54  89 NE6       30.10S
IONIA          FAIR      57  56  94 NE7       30.09F
KALAMAZOO      CLEAR     60  54  80 CALM      30.08S
LUDINGTON      CLEAR     55  55  99 CALM      30.12S FOG
MARSHALL       CLEAR     59  55  85 CALM      30.07S
MOUNT PLEASANT CLEAR     50  50 100 CALM      30.11S
MUSKEGON       CLEAR     60  53  77 NE5       30.10S
SOUTH HAVEN    CLEAR     60  56  84 CALM      30.07S
$$
MIZ016>042-161000-
NORTHERN LOWER MICHIGAN

CITY           SKY/WX    TMP DP  RH WIND       PRES   REMARKS
ALPENA         CLEAR     56  55  97 W3        30.14R
BEAVER ISLAND    N/A     56  56 100 CALM      30.16S FOG
BELLAIRE       CLEAR     50  50  97 CALM      30.15S
CADILLAC       CLEAR     50  49  97 CALM      30.14R
CHARLEVOIX     CLEAR     55  54  96 CALM      30.15S
FRANKFORT      CLEAR     56  54  91 CALM      30.14R
GAYLORD        CLEAR     51  45  79 CALM      30.16S
GRAYLING       CLEAR     46  46  99 CALM      30.15R
HARBOR SPRINGS CLEAR     57  56  95 CALM      30.16R
HOUGHTON LAKE  CLEAR     51  47  86 CALM      30.14S
MANISTEE       CLEAR     55  55 100 SE5       30.13R
OSCODA         CLEAR     56  56  99 NW5       30.11S
PELLSTON       CLEAR     51  51 100 CALM      30.16S
ROGERS CITY    CLEAR     51  49  94 CALM      30.15S
TRAVERSE CITY  CLEAR     54  51  90 CALM      30.13R
$$
MIZ007>008-015-161000-
EASTERN UPPER MICHIGAN

CITY           SKY/WX    TMP DP  RH WIND       PRES   REMARKS
KINROSS        CLEAR     61  58  90 NE7       30.18R
MACKINAC ISLAN CLEAR     60  60 100 N8        30.16R
NEWBERRY       CLEAR     55  54  95 N3        30.18R
S. S. MARIE    CLEAR     62  54  74 CALM      30.17R
$$
MIZ004>006-011>014-085-161000-
CENTRAL UPPER MICHIGAN

CITY           SKY/WX    TMP DP  RH WIND       PRES   REMARKS
MANISTIQUE     CLEAR     54  53  96 CALM      30.16S
ESCANABA       CLEAR     53  53 100 NW3       30.17S
MENOMINEE      CLEAR     55  54  96 N6        30.17R
SAWYER-GWINN   CLEAR     48  47  96 CALM      30.19S
MUNISING         N/A     51  50  96 S6        30.17S
$$
MIZ001>003-009>011-084-161000-
WESTERN UPPER MICHIGAN

CITY           SKY/WX    TMP DP  RH WIND       PRES   REMARKS
IRON MOUNTAIN  CLEAR     52  51  97 NW3       30.18S
HOUGHTON       CLEAR     51  49  92 E3        30.18F
COPPER HARBOR    N/A     55  52  89 SW5       30.18S
IRONWOOD       PTCLDY    62  56  80 S9        30.17F
$$

ABBREVIATIONS USED IN REMARKS
   TC - TEMPERATURE IN CELSIUS
  WCI - WIND CHILL INDEX
   HX - HEAT INDEX
  VSB - VISIBILITY